Tracking 30922 objects as of 2-Jul-2025
HD Live streaming from Space Station
objects crossing your sky now

STARLINK-4546

Track STARLINK-4546 now!
10-day predictions
STARLINK-4546 is classified as:


NORAD ID: 53422
Int'l Code: 2022-097AL
Perigee: 546.1 km
Apogee: 547.7 km
Inclination: 53.2 °
Period: 95.4 minutes
Semi major axis: 6917 km
RCS: Unknown
Launch date: August 10, 2022
Source: United States (US)
Launch site: AIR FORCE EASTERN TEST RANGE (AFETR)
Your satellite tracking list
ARIANE 1 DEB
Track 1 satellite(s)




NASA's NSSDC Master Catalog

Two Line Element Set (TLE):
1 53422U 22097AL  25182.21815133 -.00000851  00000-0 -35404-4 0  9994
2 53422  53.2162 163.0163 0001159  77.5541 282.5581 15.08833732160684
Source of the keplerian elements: AFSPC